Location: Hamilton
(37.7830°S, 175.2830°E)
Time: 17:52:05
(UTC+13:00)

NOSS 2-1 (E) - Pass Details

Date: 24 January 2019
Orbit: 462 x 1742 km, 63.3° (Epoch: 13 October)

Event Time Altitude Azimuth Distance (km) Brightness Sun altitude
Rises 22:38:07 0° 212° (SSW) 4,402 9.4 -20.0°
Reaches altitude 10° 22:41:27 10° 208° (SSW) 3,222 8.3 -20.5°
Maximum altitude 22:48:56 62° 128° (SE) 1,072 4.6 -21.5°
Enters shadow 22:50:54 41° 66° (ENE) 1,263 4.6 -21.7°
